Regional Weather Roundup
Issued by NWS Kansas City/Pleasant Hill, MO

Home | Current Version | Previous Version | Text Only | Print | Product List | Glossary On
Versions: 1 2 3 4 5 6 7 8 9 10 11 12 13 14 15 16 17 18 19 20 21 22 23 24 25 26 27 28 29 30 31 32 33 34 35 36 37 38 39 40 41 42 43 44 45 46 47 48 49 50
604
ASUS43 KEAX 232310
RWREAX

WEATHER ROUNDUP FOR EASTERN KANSAS AND NORTHWEST MISSOURI
NATIONAL WEATHER SERVICE KANSAS CITY/PLEASANT HILL MO
600 PM CDT TUE MAY 23 2017

KSZ040-057-103>105-MOZ028-029-037-043-240000-
...KANSAS CITY METROPOLITAN AREA...

CITY           SKY/WX    TMP DP  RH WIND       PRES   REMARKS
K.C. INTL      LGT RAIN  59  48  67 N9        29.79F
K.C. DOWNTOWN  CLOUDY    64  47  53 W5        29.78F
LEES SUMMIT    PTSUNNY   62  50  64 NW5       29.79F
OLATHE - IXD   LGT RAIN  59  48  67 VRB6      29.81F
OLATHE - OJC   CLOUDY    60  48  64 N6        29.80F
LAWRENCE       LGT RAIN  54  52  93 NW14G22   29.82R

$$

MOZ001>008-011>017-020>025-030>033-038>040-044>046-053-054-240000-
...NORTHERN AND CENTRAL MISSOURI...

CITY           SKY/WX    TMP DP  RH WIND       PRES   REMARKS
ST. JOSEPH     CLOUDY    61  47  59 NW18G24   29.80F
MOSBY          CLOUDY    61  46  59 N5        29.79F
WARRENSBURG    CLOUDY    61  46  59 NW9       29.78F
WHITEMAN AFB   PTSUNNY   65  48  53 NW15      29.76F
CLINTON        CLOUDY    66  46  48 N12       29.78F
SEDALIA        CLOUDY    65  50  58 NW13      29.77F
WARSAW         NOT AVBL
CHILLICOTHE      N/A     63  48  58 VRB7      29.78
KIRKSVILLE     SUNNY     64  46  52 NW14G21   29.75S

$$

MOZ041-047>049-056>058-063>065-088>090-097-240000-
...EASTERN AND SOUTHERN MISSOURI...

CITY           SKY/WX    TMP DP  RH WIND       PRES   REMARKS
ST. LOUIS INTL CLOUDY    63  54  72 N10       29.72
SPIRIT OF STL  CLOUDY    63  56  78 N8        29.72F
COLUMBIA       PTSUNNY   65  49  56 NW12      29.74F
JEFFERSON CITY PTSUNNY   68  48  48 NW8       29.74F
ROLLA          PTSUNNY   63  54  72 NW7       29.74S
SPRINGFIELD    MOSUNNY   66  49  54 NW14      29.78F
BRANSON        CLOUDY    63  54  72 NW9G18    29.78F
JOPLIN         MOSUNNY   68  48  48 NW10      29.80F
WEST PLAINS    CLOUDY    65  55  70 NW7       29.74

$$

IAZ060-094-KSZ022-034>040-054-083-096-NEZ052-066-093-240000-
...KANSAS...SOUTHEAST NEBRASKA AND IOWA...

CITY           SKY/WX    TMP DP  RH WIND       PRES   REMARKS
TOPEKA         CLOUDY    57  53  86 NW7       29.83S
MANHATTAN      CLOUDY    61  44  53 NW10G20   29.85F
EMPORIA        LGT RAIN  52  50  93 NW3       29.85S
CHANUTE        CLOUDY    67  44  43 MISG      29.82S
WICHITA        CLOUDY    57  49  74 NW10      29.90R
OMAHA          LGT RAIN  54  47  77 NW17      29.83S
LINCOLN        CLOUDY    55  49  80 NW10      29.88R
FALLS CITY     CLOUDY    59  45  59 NW8       29.82
LAMONI         LGT RAIN  56  46  69 NW9       29.78S
DES MOINES     LGT RAIN  57  49  74 N10       29.76S

$$





USA.gov is the U.S. government's official web portal to all federal, state and local government web resources and services.